Flag for U.S.A. Weather past 2 weeks in Prudhoe Bay, Alaska, U.S.A.

Now
20 °F

Ice fog.


Feels Like: 15 °F
Forecast: 15 / 24 °F
Wind: 3 mph from Southwest

Location: Deadhorse Airport

Current Time: Apr 25, 2015 at 10:57:34 PM

Latest Report: Apr 25, 2015 at 9:53 PM


Visibility: 0 mi

Pressure: 29.95 "Hg

Humidity: 85%

Dew point: 16 °F

Location of Prudhoe BayLocation

Historic Weather in Prudhoe Bay — Graph

°F

Prudhoe Bay temperature yesterday

Maximum temperature yesterday: 27 °F (at 11:53 PM)
Minimum temperature yesterday: 2 °F (at 5:53 AM)
Average temperature yesterday: 14 °F

Past Weeks' High & Low Weather Summary

 TemperatureHumidityPressure
High33 °F (Apr 20, 4:53 PM)95% (Apr 25, 7:53 AM)30.15 "Hg (Apr 25, 7:53 AM)
Low-5 °F (Apr 15, 1:53 AM)63% (Apr 23, 7:53 AM)29.48 "Hg (Apr 19, 6:53 PM)
Average12 °F81%29.81 "Hg
* Reported Apr 10 8:53 PM — Apr 25 8:53 PM, Prudhoe Bay, Weather by CustomWeather, © 2015

Note: Actual official high and low records may vary slightly from our data, if they occured in-between our weather recording intervals... More about our weather records

Advertising

Prudhoe Bay weather history for previous 24 hours

 ConditionsComfort  
Time TempWeatherWind HumidityBarometerVisibility
8:53 PM
Sat, Apr 25
21 °FIce fog.3 mph88%29.95 "Hg0 mi
7:53 PM22 °FIce fog.No wind89%29.95 "Hg0 mi
6:53 PM22 °FIce fog.6 mph85%29.94 "Hg0 mi
5:53 PM22 °FIce fog.3 mph92%29.94 "Hg0 mi
4:53 PM23 °FIce fog.5 mph88%29.93 "Hg0 mi
3:53 PM23 °FIce fog.8 mph88%29.93 "Hg1 mi
2:53 PM22 °FIce fog.8 mph89%29.93 "Hg1 mi
1:53 PM23 °FIce fog.9 mph88%29.93 "Hg1 mi
1:00 PM23 °FIce fog.5 mph92%29.92 "Hg0 mi
11:53 AM20 °FIce fog.8 mph85%29.91 "Hg1 mi
10:53 AM16 °FIce fog.8 mph87%29.91 "Hg1 mi
9:53 AM13 °FIce fog.7 mph92%29.90 "Hg0 mi
8:53 AM14 °FIce fog.8 mph92%29.91 "Hg0 mi
7:53 AM17 °FIce fog.8 mph95%29.90 "Hg0 mi
6:53 AM21 °FIce fog.8 mph92%29.90 "Hg0 mi
5:53 AM22 °FIce fog.7 mph92%29.89 "Hg0 mi
4:53 AM22 °FIce fog.9 mph92%29.89 "Hg0 mi
4:04 AM24 °FIce fog.9 mph88%29.88 "Hg1 mi
3:53 AM24 °FIce fog.10 mph91%29.88 "Hg2 mi
2:53 AM26 °FLow clouds.10 mph88%29.88 "Hg10 mi
1:53 AM27 °FLow clouds.12 mph89%29.89 "Hg10 mi
12:53 AM27 °FLow clouds.12 mph89%29.88 "Hg10 mi
11:53 PM
Fri, Apr 24
27 °FLow clouds.12 mph89%29.88 "Hg10 mi
10:53 PM25 °FLow clouds.10 mph88%29.88 "Hg10 mi
Weather by CustomWeather, © 2015

See weather overviewHow to use our weather pages